Location: Stara Lesna
(49.1528°N, 20.2911°E)
Time: 10:14:37
(UTC+02:00)

CSL-04 DEB - Pass Details

Date: 13 July 2020
Orbit: 545 x 629 km, 98.7° (Epoch: 05 August)

Event Time Altitude Azimuth Distance (km) Brightness Sun altitude
Rises 03:42:06 0° 164° (SSE) 2,823 7.6 -8.8°
Reaches altitude 10° 03:44:16 10° 164° (SSE) 1,913 6.8 -8.6°
Maximum altitude 03:48:25 89° 254° (WSW) 586 4.4 -8.1°
Drops below altitude 10° 03:52:30 10° 345° (NNW) 1,878 7.5 -7.7°
Sets 03:54:37 0° 345° (NNW) 2,768 8.4 -7.5°
